Probability
13 16 26 26 29 26 19 23 32 29 32 32 29 32 26 26 19 19 16 16 19 16 10 10 6 3 3 3 6 3 3 0 0 0 0 0 0 0 0 0 0 0 0
13 19 23 32 32 29 26 32 42 45 45 35 39 42 29 32 26 23 19 16 23 19 19 10 6 6 6 3 6 6 0 0 0 0 0 0 0 0 0 0 0 0 0
10 19 26 26 35 26 39 48 32 48 45 45 39 32 32 32 29 32 19 19 26 19 19 13 10 10 3 3 3 6 6 0 0 0 3 0 0 0 0 0 0 0 0
16 26 26 26 32 39 35 29 35 48 45 42 39 39 35 35 35 26 26 23 32 32 29 23 16 16 6 6 3 3 3 0 0 0 0 0 0 0 0 0 0 0 0
13 16 23 23 29 42 45 39 42 42 42 39 42 39 42 39 39 39 35 23 29 32 32 26 16 13 10 6 0 3 3 3 0 0 0 0 0 0 0 0 0 0 0
16 6 16 26 39 45 52 45 52 48 42 48 42 39 42 39 39 29 26 26 32 32 32 23 16 13 10 16 3 3 6 6 0 0 0 0 0 0 0 0 0 0 0
19 13 19 32 35 42 52 55 52 52 52 55 52 42 42 39 39 26 26 26 29 26 29 39 26 13 13 13 10 6 6 6 6 6 6 3 3 0 0 0 0 0 0
16 19 23 29 32 35 48 55 52 45 45 48 39 35 42 39 26 23 23 19 26 29 23 32 29 26 19 16 13 13 10 10 6 6 6 3 0 0 3 3 0 0 0
19 16 23 26 39 45 48 58 52 48 45 45 42 39 32 35 35 32 19 19 16 19 13 23 23 26 29 23 19 19 13 16 10 10 6 6 3 3 0 3 0 0 0
23 32 32 32 32 42 48 55 52 52 52 52 42 39 35 35 35 39 23 16 13 16 16 13 16 19 16 13 19 16 23 16 16 13 6 6 3 3 3 0 0 0 0
32 32 39 32 35 45 45 45 48 45 48 45 35 39 39 35 32 29 19 19 16 16 16 16 16 13 13 19 19 19 19 19 16 16 13 10 10 10 3 3 0 0 0
26 32 29 32 35 39 42 48 48 45 42 45 39 35 39 32 29 23 23 16 19 19 13 16 16 16 13 19 19 19 19 23 19 13 10 6 6 3 6 6 3 0 0
32 23 23 35 39 45 48 52 52 48 42 42 39 39 35 32 23 23 23 19 19 16 13 10 10 10 13 16 19 19 16 16 13 10 10 3 3 6 6 6 3 3 0
32 29 19 23 39 45 45 48 55 42 45 32 35 35 35 23 26 23 26 19 16 16 16 13 13 10 13 13 16 16 19 13 13 10 6 3 3 3 6 6 6 3 3
32 29 19 16 29 39 35 45 35 29 39 32 39 35 29 23 23 23 23 23 16 16 16 16 13 13 13 13 13 19 13 13 6 6 3 6 6 6 3 3 6 6 3
35 29 19 23 32 35 39 32 32 35 39 39 39 32 32 32 23 19 13 19 16 16 16 16 13 13 13 13 13 10 10 6 3 3 3 3 3 6 3 3 3 3 6
35 39 29 29 32 35 32 26 29 35 39 39 42 42 32 29 23 19 19 16 23 16 16 16 16 13 13 13 10 6 6 3 3 3 6 6 10 3 3 3 0 0 0
32 32 32 35 39 32 32 35 32 35 39 39 39 39 32 26 26 26 26 19 16 23 19 19 16 13 13 10 3 0 0 0 0 3 3 6 6 6 3 3 3 0 0
29 32 32 32 32 35 32 35 32 35 35 35 39 39 29 29 29 26 26 29 23 19 16 16 13 13 10 10 3 0 3 3 3 3 3 3 3 6 3 3 3 0 0
26 23 23 26 26 23 29 32 29 35 35 35 35 29 29 29 29 29 29 26 26 23 19 19 13 10 10 6 3 0 6 6 3 3 3 3 3 3 0 0 3 0 0
26 26 19 19 16 19 23 23 19 26 26 26 26 23 23 26 29 29 29 29 26 26 26 19 16 13 10 10 3 0 3 6 6 3 6 6 3 0 0 0 0 3 0
19 23 23 16 13 16 16 16 16 19 16 13 10 10 10 16 19 19 23 23 26 26 26 19 23 23 16 13 3 0 0 0 3 3 3 3 3 0 0 0 0 0 0
13 16 16 16 13 16 16 16 13 10 10 10 10 10 10 10 10 13 19 19 19 19 19 23 23 16 10 10 3 0 0 0 0 0 3 0 0 0 0 0 0 0 0
13 16 13 13 10 10 13 13 10 10 13 10 10 10 10 10 10 10 16 19 19 16 16 16 16 13 13 10 3 3 0 0 0 0 0 0 0 0 0 0 0 0 0
10 13 13 16 6 6 6 10 6 10 13 10 6 6 13 13 13 13 13 13 13 13 16 13 13 10 10 6 3 3 6 3 0 0 0 0 0 0 0 0 0 0 0
13 13 13 10 10 10 10 16 10 10 13 10 10 6 6 10 10 13 13 10 3 10 6 6 10 10 10 6 0 0 0 0 0 0 0 0 0 0 0 0 3 0 0
Height
5907 5905 5904 5903 5902 5901 5900 5899 5897 5896 5895 5894 5893 5892 5891 5890 5890 5889 5888 5887 5887 5886 5885 5885 5884 5883 5883 5882 5882 5881 5881 5880 5880 5879 5879 5879 5878 5878 5878 5877 5877 5877 5876
5908 5906 5905 5904 5903 5902 5901 5900 5899 5898 5896 5895 5894 5893 5892 5891 5890 5889 5888 5887 5887 5886 5885 5884 5883 5883 5882 5881 5880 5880 5879 5879 5878 5877 5877 5877 5877 5876 5875 5875 5875 5874 5874
5909 5907 5906 5905 5904 5903 5902 5901 5899 5898 5897 5896 5895 5894 5893 5892 5891 5889 5888 5887 5886 5885 5885 5884 5883 5882 5881 5880 5879 5878 5877 5877 5876 5875 5875 5875 5874 5873 5873 5872 5872 5872 5871
5909 5908 5906 5905 5904 5903 5902 5901 5899 5898 5897 5896 5895 5894 5893 5891 5890 5889 5888 5887 5886 5885 5884 5883 5882 5881 5880 5879 5877 5876 5875 5875 5874 5873 5873 5873 5872 5872 5871 5870 5869 5868 5868
5909 5908 5906 5906 5904 5903 5902 5900 5898 5897 5896 5895 5894 5893 5892 5890 5889 5889 5888 5887 5886 5884 5883 5882 5881 5879 5878 5877 5876 5875 5874 5873 5872 5871 5870 5870 5869 5869 5868 5867 5867 5866 5865
5907 5906 5906 5905 5904 5903 5902 5900 5899 5897 5896 5895 5893 5892 5891 5890 5889 5888 5887 5886 5885 5883 5882 5881 5879 5878 5877 5875 5874 5873 5872 5871 5870 5869 5868 5867 5866 5866 5865 5864 5863 5863 5862
5905 5905 5904 5904 5903 5902 5901 5900 5898 5897 5895 5894 5892 5891 5890 5889 5888 5887 5886 5885 5884 5882 5881 5879 5878 5876 5875 5873 5872 5871 5870 5868 5867 5866 5865 5864 5863 5862 5862 5861 5860 5859 5859
5903 5903 5903 5902 5902 5901 5900 5899 5898 5896 5895 5893 5892 5891 5889 5888 5887 5886 5885 5884 5882 5881 5879 5878 5876 5874 5873 5871 5870 5869 5867 5866 5864 5863 5862 5861 5860 5859 5858 5857 5856 5855 5855
5901 5901 5901 5900 5900 5899 5899 5898 5897 5895 5893 5892 5891 5889 5888 5887 5885 5884 5883 5882 5881 5879 5878 5876 5874 5873 5871 5869 5868 5866 5865 5863 5862 5860 5859 5858 5856 5855 5854 5853 5852 5851 5850
5899 5899 5899 5899 5898 5897 5897 5896 5895 5894 5892 5890 5889 5888 5886 5885 5884 5882 5881 5880 5878 5877 5875 5874 5872 5870 5869 5867 5865 5863 5862 5860 5859 5857 5855 5854 5853 5851 5849 5848 5847 5846 5845
5896 5896 5897 5896 5896 5895 5895 5894 5893 5892 5890 5889 5887 5886 5885 5883 5882 5880 5878 5877 5875 5874 5872 5870 5869 5867 5866 5864 5862 5860 5858 5857 5855 5853 5851 5850 5848 5847 5845 5844 5842 5841 5840
5893 5893 5893 5894 5894 5893 5892 5892 5890 5889 5888 5886 5885 5884 5882 5881 5879 5878 5876 5874 5872 5870 5869 5867 5865 5864 5862 5860 5858 5856 5854 5853 5851 5849 5847 5845 5844 5842 5841 5839 5838 5836 5835
5890 5890 5890 5890 5890 5890 5889 5889 5887 5886 5885 5883 5882 5881 5880 5878 5876 5875 5873 5871 5869 5867 5865 5863 5861 5860 5858 5856 5854 5852 5850 5848 5846 5844 5842 5841 5839 5837 5836 5834 5833 5831 5830
5886 5887 5887 5887 5887 5886 5886 5885 5883 5882 5881 5880 5879 5878 5876 5875 5873 5871 5869 5867 5865 5863 5861 5859 5857 5856 5854 5852 5850 5848 5846 5843 5841 5839 5837 5836 5834 5832 5831 5829 5827 5826 5824
5883 5883 5883 5882 5882 5881 5881 5880 5879 5878 5877 5876 5875 5874 5872 5871 5869 5867 5865 5863 5861 5859 5857 5855 5853 5851 5849 5847 5845 5843 5841 5838 5836 5834 5832 5830 5829 5827 5825 5824 5822 5820 5819
5879 5878 5878 5877 5877 5877 5876 5876 5875 5874 5873 5872 5871 5870 5868 5866 5865 5863 5861 5859 5856 5855 5853 5850 5848 5846 5844 5842 5840 5838 5836 5833 5831 5829 5827 5825 5823 5821 5820 5818 5816 5814 5813
5873 5873 5874 5873 5872 5871 5871 5870 5870 5869 5868 5867 5866 5865 5863 5861 5860 5858 5856 5854 5851 5849 5847 5845 5843 5841 5838 5836 5834 5832 5830 5828 5826 5823 5821 5819 5817 5815 5813 5812 5810 5808 5806
5867 5867 5867 5867 5866 5865 5865 5865 5864 5863 5862 5861 5860 5859 5857 5856 5854 5852 5851 5848 5846 5844 5842 5840 5837 5835 5832 5830 5828 5826 5824 5822 5820 5817 5815 5813 5811 5808 5807 5805 5803 5801 5800
5860 5860 5860 5860 5859 5859 5859 5858 5858 5857 5856 5855 5854 5852 5851 5850 5848 5846 5845 5842 5840 5838 5835 5833 5831 5829 5826 5824 5822 5820 5817 5815 5813 5811 5808 5806 5804 5801 5799 5798 5796 5794 5792
5854 5854 5854 5853 5853 5852 5851 5851 5851 5850 5849 5848 5847 5846 5845 5843 5842 5840 5838 5835 5833 5831 5829 5827 5824 5822 5820 5817 5815 5813 5810 5808 5806 5803 5801 5798 5796 5794 5792 5790 5788 5786 5784
5847 5847 5847 5847 5846 5845 5844 5844 5843 5842 5842 5841 5840 5839 5837 5835 5834 5832 5830 5828 5826 5824 5821 5819 5817 5815 5813 5810 5807 5805 5803 5800 5798 5795 5793 5790 5789 5786 5784 5782 5780 5778 5776
5839 5839 5839 5839 5838 5837 5837 5836 5836 5835 5834 5833 5832 5831 5829 5827 5825 5823 5821 5819 5818 5816 5814 5811 5809 5807 5805 5802 5800 5797 5794 5792 5790 5787 5784 5782 5780 5778 5776 5774 5772 5770 5767
5831 5831 5831 5830 5830 5829 5829 5828 5827 5827 5826 5825 5823 5822 5820 5818 5816 5815 5812 5811 5809 5807 5805 5803 5801 5799 5796 5793 5791 5789 5786 5783 5781 5779 5776 5774 5772 5769 5768 5765 5763 5761 5759
5822 5822 5822 5821 5821 5820 5819 5819 5818 5817 5817 5816 5815 5813 5811 5809 5808 5806 5805 5803 5801 5799 5797 5795 5792 5789 5787 5784 5782 5779 5777 5774 5772 5770 5767 5765 5763 5761 5759 5757 5754 5752 5750
5812 5812 5812 5811 5811 5810 5810 5809 5808 5807 5807 5806 5805 5804 5802 5801 5799 5797 5796 5794 5792 5790 5788 5786 5784 5781 5778 5776 5773 5770 5768 5765 5762 5760 5758 5756 5754 5752 5750 5747 5745 5743 5741
5802 5802 5802 5801 5801 5800 5800 5799 5798 5798 5797 5796 5795 5794 5793 5791 5790 5788 5786 5784 5783 5781 5778 5776 5774 5771 5769 5766 5764 5761 5758 5756 5753 5751 5749 5747 5745 5742 5740 5738 5736 5733 5731
Wind_Speed
11 11 12 12 12 12 12 12 11 10 10 9 9 8 8 7 6 6 6 5 4 4 4 4 4 3 3 3 4 5 5 6 7 7 7 8 7 8 8 8 9 9 10
9 9 11 11 11 11 11 11 10 10 9 8 8 8 8 8 7 6 6 5 4 4 4 4 4 4 4 4 4 5 6 7 7 7 7 7 8 9 8 9 9 9 9
8 9 9 9 9 9 9 10 9 9 8 7 7 7 7 7 7 7 6 6 5 5 4 5 4 5 5 4 4 5 5 6 6 7 7 7 7 8 9 9 9 10 10
7 7 7 8 8 8 8 8 9 8 7 7 6 6 5 6 6 6 6 6 6 6 5 5 4 5 6 5 5 6 6 7 7 7 7 7 8 8 9 9 9 10 11
5 6 6 7 7 7 7 7 8 7 6 7 6 5 5 5 5 5 5 5 6 6 6 6 6 7 7 6 6 6 6 6 7 7 8 8 9 9 10 10 11 11 12
5 6 5 6 6 7 7 6 7 8 9 9 7 6 6 6 5 5 5 5 6 6 6 6 7 7 7 7 6 6 7 7 7 8 8 9 10 10 10 10 10 11 12
5 5 5 6 6 6 7 6 7 8 8 9 9 7 6 6 6 6 6 6 6 6 6 7 7 7 8 7 7 7 7 8 8 8 9 9 10 11 11 11 11 11 12
4 4 5 5 6 6 6 6 7 8 8 8 9 8 8 7 7 7 6 7 7 7 8 8 8 9 8 8 8 8 8 8 9 9 10 10 11 12 12 13 13 13 13
4 4 4 5 5 6 6 7 7 7 8 8 9 9 9 9 9 8 8 8 8 9 9 9 10 10 10 9 9 10 10 10 10 11 11 12 12 13 13 14 14 15 15
4 3 4 5 6 6 7 7 7 8 8 9 9 9 10 10 10 9 9 9 10 10 10 10 11 11 10 11 11 11 12 12 12 12 13 13 14 14 15 15 15 15 15
7 5 6 6 6 6 7 7 8 8 9 9 10 10 11 10 10 10 10 11 11 11 12 12 12 12 12 13 13 13 13 13 13 13 14 15 15 15 16 16 16 16 16
7 6 7 7 7 7 8 8 8 8 9 10 10 11 11 12 11 11 12 12 13 13 13 13 13 13 14 14 14 14 15 15 15 15 15 16 16 16 16 17 17 17 17
10 9 9 9 9 9 9 9 9 9 10 10 11 12 13 13 13 13 13 14 14 14 14 14 14 14 14 15 15 15 15 16 16 16 16 16 16 16 17 17 17 17 17
12 11 12 12 12 12 11 10 10 11 11 12 12 13 14 14 14 14 15 16 16 15 15 15 15 15 16 16 16 16 17 17 17 17 17 17 17 17 17 17 17 18 18
14 13 14 14 14 13 13 13 12 13 13 13 14 15 15 16 16 15 16 17 17 16 17 17 17 17 17 18 18 19 19 19 19 18 18 19 18 18 18 19 19 19 19
17 16 15 15 15 15 15 15 15 16 16 16 16 16 16 17 17 18 19 18 18 18 18 18 19 19 19 19 20 20 19 19 20 20 19 20 20 20 20 20 20 20 20
19 18 18 18 18 18 17 17 17 18 18 18 19 18 18 18 19 19 20 20 19 19 19 20 20 21 21 21 21 21 21 21 21 21 21 22 22 22 21 22 22 22 22
20 21 21 20 20 20 19 19 19 19 20 20 21 20 19 19 20 20 21 21 21 20 21 21 22 22 22 22 22 22 22 22 22 22 22 23 23 23 23 23 23 23 24
24 24 23 22 22 22 21 21 21 21 22 22 22 22 21 21 21 21 22 22 22 22 23 23 23 23 23 23 23 24 24 24 24 24 24 24 25 24 24 24 25 25 25
26 26 26 25 24 24 23 23 24 24 24 24 24 24 24 24 24 23 24 24 23 24 24 24 24 24 24 25 25 25 25 26 26 26 26 26 25 25 25 26 25 25 25
28 28 27 27 26 26 26 25 25 26 26 26 26 26 26 26 26 26 26 25 25 25 25 26 26 26 26 26 26 27 27 27 28 27 27 26 26 26 26 26 26 26 26
29 29 29 28 28 27 27 28 28 28 28 28 28 28 28 28 28 28 28 27 27 27 27 27 27 28 28 28 28 28 28 28 28 28 27 27 27 26 26 26 26 26 26
30 30 30 30 30 30 30 30 30 30 30 30 30 30 30 29 28 28 28 29 29 28 28 28 28 28 28 28 29 29 30 30 29 29 27 27 27 26 26 27 27 27 27
31 31 32 33 33 33 32 32 32 32 31 31 31 31 31 31 30 29 30 29 30 30 30 29 29 29 29 29 30 30 30 31 30 29 28 28 28 28 28 28 28 28 28
32 32 33 33 33 33 32 32 32 32 32 32 33 33 32 32 31 30 30 30 30 31 30 30 30 30 29 30 31 30 30 31 30 30 30 29 29 28 28 28 29 29 29
32 32 32 32 32 32 32 32 32 32 32 33 33 33 33 32 31 30 30 30 31 31 30 31 31 31 30 30 31 30 30 30 30 30 30 30 30 29 29 29 29 29 29
Wind_Direction
49 52 54 54 54 54 53 52 51 54 58 55 53 52 50 49 47 44 46 45 40 32 30 23 7 355 331 302 290 286 287 288 284 277 274 268 269 271 273 275 270 264 257
47 50 51 51 51 50 49 46 45 46 48 46 46 45 44 43 42 39 39 38 32 22 16 12 5 358 345 321 296 291 286 286 282 279 280 278 276 276 274 274 274 271 265
38 45 44 44 42 40 39 39 37 35 38 39 39 41 40 37 35 35 36 35 29 21 14 12 4 353 346 334 324 307 293 291 288 284 284 281 282 282 284 280 275 273 272
26 34 36 37 36 32 30 30 29 28 30 28 25 30 35 32 27 24 24 25 23 19 9 358 351 342 338 331 323 315 307 303 297 289 282 283 289 287 286 286 282 281 278
5 15 20 24 29 25 17 18 20 21 21 18 15 18 22 20 14 11 11 11 8 4 -0 355 348 341 333 326 319 317 314 309 302 294 287 285 288 286 286 284 280 280 277
338 350 359 10 12 10 11 7 11 13 9 6 5 7 4 2 360 359 358 357 356 354 351 348 342 338 334 329 322 318 314 310 306 299 292 289 289 287 285 283 281 280 278
321 330 334 350 355 354 359 8 2 4 2 359 1 358 356 350 346 343 341 340 342 342 343 341 337 335 334 329 321 317 313 310 305 300 293 289 292 289 287 282 279 279 279
299 317 326 329 337 340 346 352 353 355 355 355 358 358 359 351 342 337 334 332 331 331 333 334 333 331 330 327 321 315 313 311 307 302 299 294 292 291 289 284 281 279 276
288 309 319 326 324 331 337 340 341 345 346 347 347 348 346 346 342 333 328 322 320 322 325 326 325 324 325 323 318 313 311 309 306 301 298 296 294 291 291 290 288 282 277
276 286 297 309 314 323 325 326 332 333 334 333 334 337 336 337 337 332 326 322 318 317 317 317 316 316 318 320 317 314 310 308 305 303 300 298 297 295 293 292 290 289 284
264 270 290 297 304 308 312 315 322 324 325 324 323 326 327 326 327 328 325 322 317 313 310 312 315 315 314 315 314 312 310 307 305 305 303 300 297 296 294 292 291 289 286
275 276 285 292 295 296 298 303 309 314 316 316 315 316 317 318 320 319 318 317 315 310 308 310 311 311 311 310 309 308 308 307 303 302 302 301 297 295 294 290 289 288 285
275 277 279 283 286 288 291 298 305 309 309 309 310 311 313 311 313 313 312 311 310 311 309 307 306 307 310 310 309 307 306 306 304 302 301 299 296 294 293 292 289 288 287
271 273 277 280 284 285 285 288 297 301 304 305 306 307 307 308 309 310 309 307 305 307 308 307 306 306 307 306 306 306 305 303 303 301 298 296 295 293 293 291 289 289 288
274 274 274 278 284 287 286 285 291 297 300 304 307 309 306 307 308 307 307 307 303 302 303 303 303 303 303 302 301 302 301 300 301 301 297 295 294 292 292 291 289 288 288
279 278 276 281 284 286 286 286 289 292 295 296 298 300 304 305 305 304 305 304 303 301 300 299 299 300 300 299 300 300 300 299 300 300 296 294 294 293 291 291 290 290 288
277 277 280 280 282 282 283 285 287 289 290 291 294 297 300 300 300 299 301 302 301 300 299 297 297 297 297 297 297 297 297 297 298 298 295 293 292 292 291 291 289 288 288
280 282 280 280 280 280 282 282 281 284 287 290 290 292 296 297 297 297 299 300 300 298 297 296 295 296 295 296 296 296 296 295 296 295 296 294 291 291 290 290 289 288 286
275 278 280 278 276 278 280 280 281 283 286 288 290 292 293 293 293 294 296 297 296 295 294 294 295 294 294 295 295 296 296 295 294 294 294 293 293 291 290 289 288 286 285
274 277 278 278 277 278 278 280 280 282 284 286 288 290 290 290 291 291 293 295 294 293 293 293 294 295 294 294 294 294 294 294 294 293 292 291 292 292 290 289 287 285 285
274 275 276 278 277 278 278 279 279 280 282 285 286 287 289 289 289 288 290 291 291 292 293 293 293 293 293 292 291 291 292 293 293 292 291 290 290 290 289 289 288 287 286
274 275 277 277 277 276 277 277 277 278 280 281 283 285 287 288 288 288 286 286 288 290 290 292 293 293 292 291 290 290 290 291 292 290 290 289 288 288 288 288 288 288 287
271 272 273 275 276 276 277 275 275 276 278 279 281 283 285 287 286 287 288 287 287 288 289 290 291 292 291 291 290 289 289 290 291 290 290 290 288 288 288 288 288 288 287
274 274 275 276 277 278 277 274 274 275 276 277 279 282 283 285 287 288 288 289 289 289 292 292 293 293 291 289 289 289 288 287 289 289 289 289 288 286 288 288 288 289 288
272 273 275 276 276 277 276 273 273 274 275 276 278 280 281 285 286 287 288 290 290 290 291 292 292 292 291 289 288 287 288 288 287 288 288 288 287 286 286 287 286 286 286
273 274 274 275 276 276 276 274 272 272 274 275 276 278 280 283 284 286 287 288 289 288 289 290 291 291 290 288 288 287 287 288 288 290 290 288 288 288 287 286 286 285 285